SCP
0 0 -0 -0 -0 -0 -0 -0 -0 -0 -0 -0 -0 -0 -0 -0 -0 -0 -0 -0 -0 -0 -0 -0 -0 -0 -0 -0 -0 -0 -0 -0 -0 -0 0 -0 0 0 0 0 0 0 0
0 0 -0 -0 -0 -0 -0 -0 -0 -0 -0 -0 -0 -0 0 -0 0 -0 -0 -0 -0 -0 -0 -0 -0 -0 -0 -0 -0 -0 -0 -0 -0 -0 -0 0 0 0 0 0 0 0 0
-0 -0 0 -0 -0 -0 -0 -0 -0 -0 -0 -0 -0 -0 -0 -0 -0 -0 -0 -0 -0 -0 -0 -0 -0 -0 -0 -0 -0 -0 -0 -0 -0 0 0 0 0 0 0 0 0 0 0
0 -0 -0 -0 -0 -0 -0 -0 -0 -0 -0 -0 -0 -0 -0 -0 -0 -0 -0 -0 -0 -0 -0 -0 -0 -0 -0 -0 -0 -0 -0 -0 0 0 0 0 0 0 0 0 0 0 0
-0 -0 0 -0 -0 0 -0 -0 -0 -0 -0 -0 -0 -0 -0 -0 -0 -0 -0 -0 -0 -0 -0 -0 -0 -0 -0 -0 -0 -0 -0 0 0 0 0 0 0 0 0 0 0 0 0
0 -0 0 -0 0 0 0 -0 -0 -0 -0 -0 -0 -0 -0 -0 -0 -0 -0 -0 -0 -0 -0 -0 -0 -0 -0 -0 -0 -0 0 0 0 0 0 0 0 0 0 0 0 0 0
0 0 0 0 0 0 0 0 -0 0 -0 -0 -0 -0 -0 -0 -0 -0 -0 -0 -0 -0 -0 -0 -0 -0 -0 -0 -0 -0 0 0 0 0 0 0 0 0 0 0 0 0 0
0 0 -0 0 0 0 -0 -0 0 0 0 -0 -0 -0 -0 -0 -0 -0 -0 -0 -0 -0 -0 -0 -0 -0 -0 -0 0 0 0 0 0 0 0 0 0 0 0 0 0 0 0
-0 0 0 0 -0 -0 -0 -0 0 -0 -0 -0 0 -0 -0 -0 -0 -0 -0 -0 -0 -0 -0 -0 -0 -0 -0 0 0 0 0 0 0 0 0 0 0 0 0 0 0 0 0
0 0 0 0 0 0 0 -0 0 0 0 0 0 0 0 0 0 0 0 0 0 -0 0 0 0 0 0 0 0 0 0 0 0 0 0 0 0 0 0 0 0 0 0
0 0 0 0 0 0 -0 0 0 0 0 0 0 0 0 0 0 0 0 0 0 -0 0 0 0 0 0 0 0 0 0 -0 0 0 0 0 0 0 0 0 0 0 0
0 0 0 0 -0 -0 -0 0 0 0 0 0 0 0 0 0 0 0 0 0 0 0 0 0 0 0 0 -0 -0 -0 -0 -0 -0 0 0 0 0 0 0 0 0 0 0
0 0 0 0 0 -0 0 0 0 0 0 0 0 0 0 0 0 0 0 0 0 0 -0 -0 -0 -0 -0 -0 -0 -0 -0 -0 -0 0 0 0 0 0 0 0 0 0 0
0 0 0 -0 -0 -0 0 0 0 0 0 0 0 0 0 0 0 0 0 0 0 0 0 -0 -0 -0 -0 -0 -0 -0 -0 0 -0 0 0 0 0 0 0 0 0 0 0
0 -0 -0 -0 -0 0 0 0 0 0 0 0 0 0 0 0 0 0 0 0 0 0 0 0 -0 -0 -0 -0 -0 -0 -0 0 0 0 0 0 0 0 0 0 0 0 0
-0 -0 -0 -0 -0 0 0 0 0 0 0 0 0 0 0 0 0 0 0 0 0 0 0 0 0 -0 -0 0 -0 0 0 0 0 0 0 0 0 0 0 0 0 0 0
-0 -0 -0 -0 0 0 0 0 0 0 0 0 0 0 0 0 0 0 0 0 0 0 0 0 0 0 0 0 0 0 0 0 0 0 0 0 0 0 0 0 0 0 0
0 0 0 0 0 0 0 0 0 0 0 0 0 0 0 0 0 0 0 0 0 0 0 0 0 0 0 0 0 0 0 0 0 0 0 0 0 0 0 0 0 0 0
0 0 0 0 0 0 0 0 0 0 0 0 0 0 0 0 0 0 0 0 0 0 0 0 0 0 0 0 0 0 0 0 0 0 0 0 0 0 0 0 0 0 0
0 0 0 0 0 0 0 0 0 0 0 0 0 0 0 0 0 0 0 0 0 0 0 0 0 0 0 0 0 0 0 0 0 0 0 0 0 0 0 0 0 0 0
0 0 0 0 0 0 0 0 0 0 0 0 0 0 0 0 0 0 0 0 0 0 0 0 0 0 0 0 0 0 0 0 0 0 0 0 0 0 0 0 0 0 0
0 0 0 0 0 0 0 0 0 0 0 0 0 0 0 0 0 0 0 0 0 0 0 0 0 0 0 0 0 0 0 0 0 0 0 0 0 0 0 0 0 0 0
0 0 0 0 0 0 0 0 0 0 0 0 0 0 0 0 0 0 0 0 0 0 0 0 0 0 0 0 0 0 0 0 0 0 0 0 0 0 0 0 0 0 0
0 0 0 0 0 0 0 0 0 0 0 0 0 0 0 0 0 0 0 0 0 0 0 0 0 0 0 0 0 0 0 0 0 0 0 0 0 0 0 0 0 0 0
0 0 0 0 0 0 0 0 0 0 0 0 0 0 0 0 0 0 0 0 0 0 0 0 0 0 0 0 0 0 0 0 0 0 0 0 0 0 0 0 0 0 0
0 0 0 0 0 0 0 0 0 0 0 0 0 0 0 0 0 0 0 0 0 0 0 0 0 0 0 0 0 0 0 0 0 0 0 0 0 0 0 0 0 0 0
Wind_Speed_500mb
10 14 13 13 9 10 19 13 23 27 29 35 41 38 39 30 25 23 24 29 34 36 37 37 41 41 38 40 40 43 45 39 39 39 23 28 44 47 44 30 31 34 37
4 12 13 11 10 20 13 13 23 27 28 35 42 44 35 28 23 22 34 39 39 43 42 41 41 41 41 40 43 40 40 41 25 25 29 48 53 53 52 51 49 48 46
19 9 8 21 19 18 21 19 24 28 30 33 38 37 23 19 24 29 37 35 42 43 40 41 43 44 38 38 41 40 42 39 24 22 38 51 52 50 50 50 50 51 48
10 2 18 13 14 16 19 16 20 29 33 32 32 32 21 22 31 38 35 38 39 40 41 41 43 45 43 42 41 46 46 35 34 43 50 48 47 50 50 53 52 52 50
5 11 9 7 10 15 15 20 24 29 36 30 26 28 21 26 37 35 39 41 44 44 46 47 46 45 44 42 42 41 41 24 32 44 45 51 58 53 52 52 52 54 53
8 5 7 15 16 19 16 19 24 29 34 27 36 23 27 36 34 40 41 44 47 48 50 50 50 48 43 40 36 38 37 40 38 43 49 59 60 55 52 53 54 51 52
6 10 13 15 14 12 17 19 24 31 29 41 38 23 33 36 38 39 43 46 49 51 51 50 49 46 44 42 41 42 41 38 42 43 50 60 54 54 53 54 54 54 54
8 11 15 15 14 15 14 20 22 27 34 40 34 28 30 33 38 42 43 46 49 50 50 49 49 46 45 45 43 39 37 41 43 46 53 60 54 54 53 53 53 54 55
11 11 13 16 14 16 19 22 23 26 29 35 28 31 34 33 39 41 42 45 47 48 48 48 48 46 46 45 42 41 44 44 46 49 58 59 54 53 53 54 54 54 55
13 12 13 14 14 18 20 23 25 27 31 29 31 35 33 33 36 38 40 43 45 45 46 46 45 44 45 43 43 45 46 49 52 53 58 55 53 53 54 54 54 55 55
14 13 13 14 15 19 21 23 27 32 34 32 32 33 29 31 32 33 39 40 41 43 44 42 40 41 43 43 46 46 47 52 54 56 59 54 54 55 54 55 55 55 56
13 14 13 15 16 17 21 23 26 29 29 28 28 27 26 27 30 31 35 37 36 39 39 37 39 41 43 46 47 47 48 50 53 56 58 56 55 55 55 57 57 57 57
12 13 13 14 17 18 20 22 23 25 24 24 27 27 26 26 26 28 28 30 32 33 34 34 36 41 44 46 47 49 49 50 52 55 57 56 58 58 58 59 59 58 60
14 14 13 13 15 17 19 21 22 23 24 24 26 25 23 22 24 24 25 25 26 28 30 32 36 38 43 44 46 47 49 51 52 53 54 56 59 61 61 63 61 61 63
16 15 15 13 14 16 19 20 21 21 21 23 22 23 22 21 21 21 21 20 22 24 27 30 32 34 38 41 44 44 47 49 51 52 52 54 58 60 62 65 65 64 65
18 17 16 15 15 17 18 20 20 20 20 20 21 19 19 20 19 19 18 17 18 20 23 26 28 30 32 37 40 42 44 46 48 49 50 51 56 58 60 63 66 67 65
23 19 17 17 17 17 18 18 18 18 19 19 20 20 18 18 18 17 16 15 15 15 17 20 25 27 29 32 35 39 43 44 46 46 48 49 53 55 59 62 67 69 73
28 23 22 20 19 19 18 18 19 19 19 20 20 20 19 18 17 16 15 13 12 10 14 16 19 22 24 25 28 33 40 43 43 43 46 49 53 55 58 61 64 69 73
32 29 25 23 22 19 19 19 19 19 19 20 20 20 19 18 17 16 15 13 11 8 9 11 15 18 21 20 22 27 34 42 41 41 44 47 50 54 57 60 63 68 72
36 33 30 27 24 23 21 21 21 20 20 20 19 20 20 19 18 16 16 14 11 8 6 7 12 14 16 16 16 20 25 33 40 40 41 43 48 51 56 60 64 68 72
43 40 35 32 29 26 24 24 24 22 22 21 20 20 21 21 20 18 17 16 13 10 5 3 7 12 17 16 10 16 19 23 31 39 40 42 46 51 54 60 65 69 73
50 45 40 37 33 30 27 27 25 24 24 21 21 21 21 22 21 20 18 17 15 11 9 4 2 6 12 17 14 12 12 14 25 29 36 41 47 51 53 58 63 68 73
58 52 45 41 36 33 32 28 27 25 24 23 23 23 22 22 21 20 19 17 16 14 13 8 2 2 4 11 16 11 4 5 10 18 30 34 41 46 50 55 61 66 70
61 54 48 46 40 38 33 31 27 25 24 24 24 23 23 22 22 20 20 19 18 17 14 10 6 3 2 4 8 11 12 10 7 6 20 30 37 39 48 53 58 64 68
61 57 53 50 43 42 34 33 31 30 28 24 23 24 24 23 22 21 21 20 20 18 15 12 8 5 2 2 4 4 6 10 10 9 6 17 29 34 42 50 55 61 65
61 59 57 55 49 43 39 37 35 33 26 26 26 26 25 24 23 22 22 21 20 18 16 13 10 7 4 2 3 4 6 8 8 10 9 14 25 32 35 44 49 55 60
Wind_Direction_500mb
318 336 63 74 44 26 89 77 74 68 76 75 87 80 73 72 74 61 69 70 68 67 61 60 56 58 62 63 61 53 51 54 46 43 32 43 33 28 21 8 12 15 12
47 349 71 65 44 75 85 81 73 76 76 89 87 67 79 81 66 58 74 65 62 61 58 57 57 56 57 60 54 52 52 48 54 59 45 44 40 30 32 34 32 29 27
75 319 47 64 63 68 61 74 84 84 80 99 89 75 83 72 69 68 73 70 63 62 61 60 56 56 56 57 54 55 53 46 37 39 46 46 40 31 29 31 26 28 25
102 264 80 103 101 85 91 91 93 96 87 91 94 79 87 76 72 80 77 73 69 64 62 59 54 52 56 60 61 58 56 48 39 59 55 49 46 30 30 26 26 22 21
91 91 113 150 122 93 103 86 88 99 97 83 109 75 79 82 79 81 76 70 65 61 58 56 54 55 57 60 63 63 56 44 45 58 55 49 42 31 28 26 25 20 18
160 91 75 85 114 109 109 100 99 110 108 94 92 94 79 86 84 80 76 72 65 60 57 54 53 55 58 62 64 65 62 49 55 57 57 45 34 29 25 25 27 18 17
98 76 77 86 88 87 102 102 113 116 122 108 106 106 93 89 84 83 79 72 64 60 58 56 56 56 56 57 58 56 53 46 48 52 52 48 34 29 25 23 22 19 18
103 81 84 84 79 86 93 105 114 129 128 122 115 109 108 97 93 86 80 71 64 61 59 57 57 56 55 54 53 48 44 44 45 49 52 49 33 30 27 24 22 19 15
99 101 88 82 88 94 104 105 108 113 124 129 114 106 97 94 94 87 81 72 66 62 60 59 56 55 54 52 51 49 49 47 45 45 50 44 34 29 26 24 22 18 15
121 107 94 89 90 100 111 113 112 115 118 108 110 103 97 95 95 90 82 74 68 64 61 60 58 55 55 53 52 51 51 49 46 42 44 41 33 28 26 24 21 19 16
125 119 110 104 104 111 116 118 120 118 118 118 111 101 100 99 96 92 86 76 71 67 64 63 60 58 57 54 52 51 50 49 45 41 39 37 32 28 26 24 23 20 17
136 137 123 109 115 126 122 125 123 128 131 128 121 115 106 105 103 94 88 81 71 69 67 65 61 59 56 54 52 51 49 48 44 41 39 34 33 30 28 26 24 21 19
150 142 134 130 127 134 136 133 134 138 140 134 126 123 120 116 112 99 93 84 78 74 71 68 64 58 55 53 52 50 48 46 43 41 39 34 33 32 29 27 25 23 21
160 154 149 136 136 146 148 148 150 150 146 141 135 128 125 121 113 106 101 93 85 79 73 68 61 58 55 52 51 49 48 46 43 42 38 36 37 36 33 32 28 25 23
171 162 163 152 148 163 164 159 160 161 153 150 148 143 136 130 124 118 111 103 89 80 73 68 63 59 56 53 51 49 47 45 44 43 40 38 39 38 36 35 32 27 25
183 179 171 167 174 176 169 170 168 166 167 164 159 155 147 142 135 131 122 112 96 84 75 69 63 58 56 53 50 47 45 44 45 46 44 41 41 38 36 34 31 29 25
194 188 179 179 184 179 177 176 176 177 177 176 171 166 162 156 151 145 136 125 112 95 82 71 62 55 52 52 48 46 42 42 43 43 43 41 41 37 34 32 30 28 26
206 195 192 187 189 191 184 185 187 187 187 185 181 178 176 173 167 160 154 144 130 111 82 68 63 56 51 52 48 45 42 39 40 40 39 37 37 34 32 30 28 27 27
210 206 200 197 196 197 195 193 194 195 195 192 189 187 186 185 184 177 170 164 154 131 96 75 58 49 42 44 47 45 41 39 36 36 37 36 33 30 28 28 27 26 27
212 211 206 206 202 203 201 200 201 199 201 200 198 195 194 193 193 190 185 182 178 164 130 79 63 56 45 43 48 45 35 35 35 33 33 33 32 29 27 26 25 26 26
214 214 211 212 209 208 206 206 204 206 205 205 203 202 201 200 199 199 196 195 197 192 167 122 71 58 46 45 42 49 33 25 32 30 29 31 30 27 26 27 25 24 26
218 216 213 214 212 210 209 211 212 209 210 206 207 207 205 204 205 205 203 203 209 205 205 206 91 72 55 48 52 42 18 6 14 20 19 25 29 26 26 26 25 25 26
219 217 215 217 213 213 215 215 216 213 211 209 210 211 211 208 208 208 209 210 213 216 218 221 226 44 48 53 53 59 66 6 345 11 15 20 25 24 25 27 27 26 28
219 217 216 218 214 216 217 215 216 218 217 213 213 214 215 213 212 211 212 214 215 222 227 227 231 230 325 48 64 65 64 54 46 358 7 10 28 24 25 27 27 29 30
218 216 216 218 214 219 215 215 215 216 218 217 216 216 217 216 214 214 214 217 220 225 229 230 233 242 255 30 50 55 61 56 65 67 10 18 28 26 27 28 28 31 33
215 216 215 216 216 217 215 216 216 222 222 222 219 217 217 216 215 215 217 219 223 226 228 229 230 225 203 153 83 61 49 54 61 54 46 26 33 30 30 30 31 35 37
Wind_Speed_850mb
10 14 13 13 9 10 19 13 23 27 29 35 41 38 39 30 25 23 24 29 34 36 37 37 41 41 38 40 40 43 45 39 39 39 23 28 44 47 44 30 31 34 37
4 12 13 11 10 20 13 13 23 27 28 35 42 44 35 28 23 22 34 39 39 43 42 41 41 41 41 40 43 40 40 41 25 25 29 48 53 53 52 51 49 48 46
19 9 8 21 19 18 21 19 24 28 30 33 38 37 23 19 24 29 37 35 42 43 40 41 43 44 38 38 41 40 42 39 24 22 38 51 52 50 50 50 50 51 48
10 2 18 13 14 16 19 16 20 29 33 32 32 32 21 22 31 38 35 38 39 40 41 41 43 45 43 42 41 46 46 35 34 43 50 48 47 50 50 53 52 52 50
5 11 9 7 10 15 15 20 24 29 36 30 26 28 21 26 37 35 39 41 44 44 46 47 46 45 44 42 42 41 41 24 32 44 45 51 58 53 52 52 52 54 53
8 5 7 15 16 19 16 19 24 29 34 27 36 23 27 36 34 40 41 44 47 48 50 50 50 48 43 40 36 38 37 40 38 43 49 59 60 55 52 53 54 51 52
6 10 13 15 14 12 17 19 24 31 29 41 38 23 33 36 38 39 43 46 49 51 51 50 49 46 44 42 41 42 41 38 42 43 50 60 54 54 53 54 54 54 54
8 11 15 15 14 15 14 20 22 27 34 40 34 28 30 33 38 42 43 46 49 50 50 49 49 46 45 45 43 39 37 41 43 46 53 60 54 54 53 53 53 54 55
11 11 13 16 14 16 19 22 23 26 29 35 28 31 34 33 39 41 42 45 47 48 48 48 48 46 46 45 42 41 44 44 46 49 58 59 54 53 53 54 54 54 55
13 12 13 14 14 18 20 23 25 27 31 29 31 35 33 33 36 38 40 43 45 45 46 46 45 44 45 43 43 45 46 49 52 53 58 55 53 53 54 54 54 55 55
14 13 13 14 15 19 21 23 27 32 34 32 32 33 29 31 32 33 39 40 41 43 44 42 40 41 43 43 46 46 47 52 54 56 59 54 54 55 54 55 55 55 56
13 14 13 15 16 17 21 23 26 29 29 28 28 27 26 27 30 31 35 37 36 39 39 37 39 41 43 46 47 47 48 50 53 56 58 56 55 55 55 57 57 57 57
12 13 13 14 17 18 20 22 23 25 24 24 27 27 26 26 26 28 28 30 32 33 34 34 36 41 44 46 47 49 49 50 52 55 57 56 58 58 58 59 59 58 60
14 14 13 13 15 17 19 21 22 23 24 24 26 25 23 22 24 24 25 25 26 28 30 32 36 38 43 44 46 47 49 51 52 53 54 56 59 61 61 63 61 61 63
16 15 15 13 14 16 19 20 21 21 21 23 22 23 22 21 21 21 21 20 22 24 27 30 32 34 38 41 44 44 47 49 51 52 52 54 58 60 62 65 65 64 65
18 17 16 15 15 17 18 20 20 20 20 20 21 19 19 20 19 19 18 17 18 20 23 26 28 30 32 37 40 42 44 46 48 49 50 51 56 58 60 63 66 67 65
23 19 17 17 17 17 18 18 18 18 19 19 20 20 18 18 18 17 16 15 15 15 17 20 25 27 29 32 35 39 43 44 46 46 48 49 53 55 59 62 67 69 73
28 23 22 20 19 19 18 18 19 19 19 20 20 20 19 18 17 16 15 13 12 10 14 16 19 22 24 25 28 33 40 43 43 43 46 49 53 55 58 61 64 69 73
32 29 25 23 22 19 19 19 19 19 19 20 20 20 19 18 17 16 15 13 11 8 9 11 15 18 21 20 22 27 34 42 41 41 44 47 50 54 57 60 63 68 72
36 33 30 27 24 23 21 21 21 20 20 20 19 20 20 19 18 16 16 14 11 8 6 7 12 14 16 16 16 20 25 33 40 40 41 43 48 51 56 60 64 68 72
43 40 35 32 29 26 24 24 24 22 22 21 20 20 21 21 20 18 17 16 13 10 5 3 7 12 17 16 10 16 19 23 31 39 40 42 46 51 54 60 65 69 73
50 45 40 37 33 30 27 27 25 24 24 21 21 21 21 22 21 20 18 17 15 11 9 4 2 6 12 17 14 12 12 14 25 29 36 41 47 51 53 58 63 68 73
58 52 45 41 36 33 32 28 27 25 24 23 23 23 22 22 21 20 19 17 16 14 13 8 2 2 4 11 16 11 4 5 10 18 30 34 41 46 50 55 61 66 70
61 54 48 46 40 38 33 31 27 25 24 24 24 23 23 22 22 20 20 19 18 17 14 10 6 3 2 4 8 11 12 10 7 6 20 30 37 39 48 53 58 64 68
61 57 53 50 43 42 34 33 31 30 28 24 23 24 24 23 22 21 21 20 20 18 15 12 8 5 2 2 4 4 6 10 10 9 6 17 29 34 42 50 55 61 65
61 59 57 55 49 43 39 37 35 33 26 26 26 26 25 24 23 22 22 21 20 18 16 13 10 7 4 2 3 4 6 8 8 10 9 14 25 32 35 44 49 55 60
Wind_Direction_850mb
318 336 63 74 44 26 89 77 74 68 76 75 87 80 73 72 74 61 69 70 68 67 61 60 56 58 62 63 61 53 51 54 46 43 32 43 33 28 21 8 12 15 12
47 349 71 65 44 75 85 81 73 76 76 89 87 67 79 81 66 58 74 65 62 61 58 57 57 56 57 60 54 52 52 48 54 59 45 44 40 30 32 34 32 29 27
75 319 47 64 63 68 61 74 84 84 80 99 89 75 83 72 69 68 73 70 63 62 61 60 56 56 56 57 54 55 53 46 37 39 46 46 40 31 29 31 26 28 25
102 264 80 103 101 85 91 91 93 96 87 91 94 79 87 76 72 80 77 73 69 64 62 59 54 52 56 60 61 58 56 48 39 59 55 49 46 30 30 26 26 22 21
91 91 113 150 122 93 103 86 88 99 97 83 109 75 79 82 79 81 76 70 65 61 58 56 54 55 57 60 63 63 56 44 45 58 55 49 42 31 28 26 25 20 18
160 91 75 85 114 109 109 100 99 110 108 94 92 94 79 86 84 80 76 72 65 60 57 54 53 55 58 62 64 65 62 49 55 57 57 45 34 29 25 25 27 18 17
98 76 77 86 88 87 102 102 113 116 122 108 106 106 93 89 84 83 79 72 64 60 58 56 56 56 56 57 58 56 53 46 48 52 52 48 34 29 25 23 22 19 18
103 81 84 84 79 86 93 105 114 129 128 122 115 109 108 97 93 86 80 71 64 61 59 57 57 56 55 54 53 48 44 44 45 49 52 49 33 30 27 24 22 19 15
99 101 88 82 88 94 104 105 108 113 124 129 114 106 97 94 94 87 81 72 66 62 60 59 56 55 54 52 51 49 49 47 45 45 50 44 34 29 26 24 22 18 15
121 107 94 89 90 100 111 113 112 115 118 108 110 103 97 95 95 90 82 74 68 64 61 60 58 55 55 53 52 51 51 49 46 42 44 41 33 28 26 24 21 19 16
125 119 110 104 104 111 116 118 120 118 118 118 111 101 100 99 96 92 86 76 71 67 64 63 60 58 57 54 52 51 50 49 45 41 39 37 32 28 26 24 23 20 17
136 137 123 109 115 126 122 125 123 128 131 128 121 115 106 105 103 94 88 81 71 69 67 65 61 59 56 54 52 51 49 48 44 41 39 34 33 30 28 26 24 21 19
150 142 134 130 127 134 136 133 134 138 140 134 126 123 120 116 112 99 93 84 78 74 71 68 64 58 55 53 52 50 48 46 43 41 39 34 33 32 29 27 25 23 21
160 154 149 136 136 146 148 148 150 150 146 141 135 128 125 121 113 106 101 93 85 79 73 68 61 58 55 52 51 49 48 46 43 42 38 36 37 36 33 32 28 25 23
171 162 163 152 148 163 164 159 160 161 153 150 148 143 136 130 124 118 111 103 89 80 73 68 63 59 56 53 51 49 47 45 44 43 40 38 39 38 36 35 32 27 25
183 179 171 167 174 176 169 170 168 166 167 164 159 155 147 142 135 131 122 112 96 84 75 69 63 58 56 53 50 47 45 44 45 46 44 41 41 38 36 34 31 29 25
194 188 179 179 184 179 177 176 176 177 177 176 171 166 162 156 151 145 136 125 112 95 82 71 62 55 52 52 48 46 42 42 43 43 43 41 41 37 34 32 30 28 26
206 195 192 187 189 191 184 185 187 187 187 185 181 178 176 173 167 160 154 144 130 111 82 68 63 56 51 52 48 45 42 39 40 40 39 37 37 34 32 30 28 27 27
210 206 200 197 196 197 195 193 194 195 195 192 189 187 186 185 184 177 170 164 154 131 96 75 58 49 42 44 47 45 41 39 36 36 37 36 33 30 28 28 27 26 27
212 211 206 206 202 203 201 200 201 199 201 200 198 195 194 193 193 190 185 182 178 164 130 79 63 56 45 43 48 45 35 35 35 33 33 33 32 29 27 26 25 26 26
214 214 211 212 209 208 206 206 204 206 205 205 203 202 201 200 199 199 196 195 197 192 167 122 71 58 46 45 42 49 33 25 32 30 29 31 30 27 26 27 25 24 26
218 216 213 214 212 210 209 211 212 209 210 206 207 207 205 204 205 205 203 203 209 205 205 206 91 72 55 48 52 42 18 6 14 20 19 25 29 26 26 26 25 25 26
219 217 215 217 213 213 215 215 216 213 211 209 210 211 211 208 208 208 209 210 213 216 218 221 226 44 48 53 53 59 66 6 345 11 15 20 25 24 25 27 27 26 28
219 217 216 218 214 216 217 215 216 218 217 213 213 214 215 213 212 211 212 214 215 222 227 227 231 230 325 48 64 65 64 54 46 358 7 10 28 24 25 27 27 29 30
218 216 216 218 214 219 215 215 215 216 218 217 216 216 217 216 214 214 214 217 220 225 229 230 233 242 255 30 50 55 61 56 65 67 10 18 28 26 27 28 28 31 33
215 216 215 216 216 217 215 216 216 222 222 222 219 217 217 216 215 215 217 219 223 226 228 229 230 225 203 153 83 61 49 54 61 54 46 26 33 30 30 30 31 35 37